Location: Unspecified
(43.4354°N, 0.0000°E)
Time: 22:41:06
(UTC+00:00)

S-56A Canister/Altair - Pass Details

Date: 02 July 2019
Orbit: 632 x 2500 km, 38.9° (Epoch: 18 July)

Event Time Altitude Azimuth Distance (km) Brightness Sun altitude
Rises 18:22:39 0° 281° (W) 4,877 13.6 12.4°
Reaches altitude 10° 18:26:58 10° 270° (W) 3,533 12.5 11.7°
Maximum altitude 18:33:25 24° 221° (SW) 2,103 10.1 10.6°
Drops below altitude 10° 18:38:17 10° 168° (SSE) 2,575 9.9 9.8°
Sets 18:40:54 0° 154° (SSE) 3,315 10.3 9.3°
